This demonstration page uses our WeatherBlox Daily Observations layout. Learn more.

Left ArrowRight Arrow

39.12711, -84.51439

Hourly Observations for September 11, 2018

Temp ( °F °C ) Dew Point ( °F °C ) Humidity (%) Winds ( mph kmh ) Pressure ( in mb ) Visibility ( mi km ) Precip ( " mm )
12:53 am 00:53 Cloudy 63 17.2 63 17.2 100 100 Calm 30.10 1019 10 16 0.00 0.00
1:53 am 01:53 Cloudy 63 17.2 63 17.2 100 100 Calm 30.10 1019 10 16 0.00 0.00
2:53 am 02:53 Cloudy 62 16.7 62 16.7 100 100 Calm 30.10 1019 10 16 0.00 0.00
3:53 am 03:53 Cloudy 63 17.2 63 17.2 100 100 Calm 30.10 1019 10 16 0.00 0.00
4:53 am 04:53 Cloudy 63 17.2 63 17.2 100 100 Calm 30.11 1020 9 14 0.00 0.00
5:53 am 05:53 Cloudy 63 17.2 63 17.2 100 100 Calm 30.12 1020 10 16 0.00 0.00
6:53 am 06:53 Cloudy 63 17.2 63 17.2 100 100 Calm 30.13 1020 10 16 0.00 0.00
7:53 am 07:53 Cloudy 63 17.2 63 17.2 100 100 Calm 30.14 1021 10 16 0.00 0.00
8:53 am 08:53 Cloudy 64 17.8 63 17.2 96 96 Calm 30.15 1021 10 16 0.00 0.00
9:53 am 09:53 Cloudy 65 18.3 63 17.2 93 93 Calm 30.17 1022 10 16 0.00 0.00
10:53 am 10:53 Cloudy 66 18.9 63 17.2 90 90 ENE 5 7 30.19 1022 10 16 0.00 0.00
11:32 am 11:32 Cloudy 67 19.4 63 17.2 87 87 NE 5 7 30.18 1022 10 16 0.00 0.00
11:53 am 11:53 Cloudy 67 19.4 63 17.2 87 87 Calm 30.19 1022 10 16 0.00 0.00
12:53 pm 12:53 Cloudy 69 20.6 63 17.2 81 81 NE 5 7 30.19 1022 10 16 0.00 0.00
1:53 pm 13:53 Cloudy 70 21.1 61 16.1 73 73 ENE 5 7 30.18 1022 10 16 0.00 0.00
2:53 pm 14:53 Cloudy 69 20.6 61 16.1 76 76 Calm 30.17 1022 10 16 0.00 0.00
3:53 pm 15:53 Cloudy 71 21.7 62 16.7 73 73 NNE 3 6 30.16 1021 10 16 0.00 0.00
4:53 pm 16:53 Cloudy 69 20.6 62 16.7 78 78 NE 3 6 30.15 1021 10 16 0.00 0.00
5:53 pm 17:53 Cloudy 70 21.1 62 16.7 76 76 Calm 30.14 1021 10 16 0.00 0.00
6:53 pm 18:53 Cloudy 68 20 64 17.8 87 87 Calm 30.14 1021 10 16 0.00 0.00
7:53 pm 19:53 Cloudy 66 18.9 65 18.3 96 96 Calm 30.14 1021 10 16 0.00 0.00
8:53 pm 20:53 Cloudy 65 18.3 64 17.8 97 97 E 3 6 30.14 1021 10 16 0.00 0.00
9:53 pm 21:53 Cloudy 65 18.3 65 18.3 100 100 Calm 30.16 1021 10 16 0.00 0.00
10:53 pm 22:53 Cloudy 65 18.3 64 17.8 97 97 Calm 30.15 1021 10 16 0.00 0.00
11:53 pm 23:53 Cloudy 64 17.8 64 17.8 100 100 Calm 30.16 1022 10 16 0.00 0.00

Powered by AerisWeather